Weather History for KPLU - April, 2014

Change the Weather History Date:

Tuesday, April 8, 2014

  Actual Average (KTCM) Record (KTCM)
Temperature  
Mean Temperature 55 °F -  
Max Temperature 62 °F 54 °F 70 °F (1959)
Min Temperature 48 °F 35 °F 28 °F (2002)
Degree Days  
Heating Degree Days 10    
Growing Degree Days 5 (Base 50)    
Moisture  
Dew Point 50 °F    
Average Humidity 89    
Maximum Humidity 100    
Minimum Humidity 59    
Precipitation  
Precipitation 0.24 in - - ()
Sea Level Pressure  
Sea Level Pressure 30.15 in    
Wind  
Wind Speed 3 mph (WSW)    
Max Wind Speed 9 mph    
Max Gust Speed -    
Visibility 9 miles    
Events Rain    
Averages and records for this station are not official NWS values.
T = Trace of Precipitation, MM = Missing Value Source: NWS Daily Summary

Daily Weather History Graph

Daily Weather History Graph

Search for Another Location

Airport or City:

Trip Planner

Search our weather history database for the weather conditions in past years. The results will help you decide how hot, cold, wet, or windy it might be!

Date:

Astronomy

Apr. 08, 2014 Rise Set
Actual Time 6:34 AM PDT 7:48 PM PDT
Civil Twilight 6:02 AM PDT 8:19 PM PDT
Nautical Twilight 5:25 AM PDT 8:57 PM PDT
Astronomical Twilight 4:44 AM PDT 9:38 PM PDT
Moon 1:25 PM PDT (4/8) 3:13 AM PDT (4/8)
Length of Visible Light 14h 16m
Length of Day
13h 14m
Waxing Gibbous, 63% of the Moon is Illuminated
Apr 8
Waxing Gibbous
Apr 15
Full
Apr 22
Last Quarter
Apr 28
New
May 6
First Quarter

Hourly Weather History & Observations

Time (PDT) Temp. Dew Point Humidity Pressure Visibility Wind Dir Wind Speed Gust Speed Precip Events Conditions
12:15 AM 51.8 °F 50.0 °F 94% 30.17 in 10.0 mi Calm Calm - N/A   Unknown
12:35 AM 51.8 °F 51.8 °F 100% 30.18 in 10.0 mi Calm Calm - N/A   Unknown
12:55 AM 53.6 °F 50.0 °F 88% 30.19 in 10.0 mi Calm Calm - N/A   Unknown
1:15 AM 53.6 °F 51.8 °F 94% 30.19 in 10.0 mi Calm Calm - N/A   Unknown
1:35 AM 53.6 °F 50.0 °F 88% 30.19 in 10.0 mi Calm Calm - N/A   Unknown
1:55 AM 53.6 °F 50.0 °F 88% 30.19 in 10.0 mi West 3.5 mph - N/A   Unknown
2:15 AM 53.6 °F 50.0 °F 88% 30.19 in 10.0 mi Calm Calm - N/A   Unknown
2:35 AM 51.8 °F 48.2 °F 88% 30.19 in 10.0 mi Calm Calm - N/A   Unknown
2:55 AM 50.0 °F 48.2 °F 94% 30.20 in 10.0 mi West 5.8 mph - N/A   Unknown
3:15 AM 48.2 °F 48.2 °F 100% 30.19 in 10.0 mi West 5.8 mph - N/A   Unknown
3:35 AM 48.2 °F 48.2 °F 100% 30.19 in 10.0 mi West 5.8 mph - N/A   Unknown
3:55 AM 48.2 °F 48.2 °F 100% 30.19 in 10.0 mi Calm Calm - N/A   Unknown
4:15 AM 48.2 °F 48.2 °F 100% 30.19 in 10.0 mi WSW 3.5 mph - N/A   Unknown
4:35 AM 48.2 °F 48.2 °F 100% 30.18 in 10.0 mi Calm Calm - N/A   Unknown
4:55 AM 48.2 °F 48.2 °F 100% 30.19 in 10.0 mi SW 3.5 mph - N/A   Unknown
5:15 AM 48.2 °F 48.2 °F 100% 30.19 in 10.0 mi Calm Calm - N/A   Unknown
5:35 AM 48.2 °F 48.2 °F 100% 30.18 in 10.0 mi Calm Calm - N/A   Unknown
5:55 AM 48.2 °F 48.2 °F 100% 30.18 in 10.0 mi South 3.5 mph - N/A   Unknown
6:15 AM 48.2 °F 48.2 °F 100% 30.18 in 10.0 mi Calm Calm - N/A   Unknown
6:35 AM 50.0 °F 48.2 °F 94% 30.18 in 10.0 mi Calm Calm - N/A   Unknown
6:55 AM 50.0 °F 48.2 °F 94% 30.17 in 10.0 mi South 3.5 mph - N/A   Unknown
7:15 AM 50.0 °F 48.2 °F 94% 30.17 in 10.0 mi Calm Calm - N/A   Unknown
7:35 AM 51.8 °F 48.2 °F 88% 30.17 in 10.0 mi South 3.5 mph - N/A   Unknown
7:55 AM 51.8 °F 48.2 °F 88% 30.17 in 10.0 mi South 4.6 mph - N/A   Unknown
8:15 AM 53.6 °F 48.2 °F 82% 30.16 in 10.0 mi SSW 3.5 mph - N/A   Unknown
8:35 AM 53.6 °F 48.2 °F 82% 30.16 in 10.0 mi Calm Calm - N/A   Unknown
8:55 AM 55.4 °F 48.2 °F 77% 30.16 in 10.0 mi South 4.6 mph - N/A   Unknown
9:15 AM 55.4 °F 48.2 °F 77% 30.15 in 10.0 mi SW 3.5 mph - N/A   Unknown
9:35 AM 57.2 °F 48.2 °F 72% 30.16 in 10.0 mi West 3.5 mph - N/A   Unknown
9:55 AM 57.2 °F 48.2 °F 72% 30.16 in 10.0 mi Calm Calm - N/A   Unknown
10:15 AM 59.0 °F 48.2 °F 67% 30.16 in 10.0 mi Calm Calm - N/A   Unknown
10:35 AM 59.0 °F 48.2 °F 67% 30.16 in 10.0 mi Calm Calm - N/A   Unknown
10:55 AM 59.0 °F 48.2 °F 67% 30.16 in 10.0 mi West 5.8 mph - N/A   Unknown
11:15 AM 59.0 °F 46.4 °F 63% 30.17 in 10.0 mi West 5.8 mph - N/A   Unknown
11:35 AM 60.8 °F 48.2 °F 63% 30.16 in 10.0 mi WSW 6.9 mph - N/A   Unknown
11:55 AM 62.6 °F 48.2 °F 59% 30.15 in 10.0 mi South 5.8 mph - N/A   Unknown
12:15 PM 62.6 °F 48.2 °F 59% 30.15 in 10.0 mi WSW 5.8 mph - N/A   Unknown
12:35 PM 62.6 °F 48.2 °F 59% 30.14 in 10.0 mi SW 6.9 mph - N/A   Unknown
12:55 PM 62.6 °F 48.2 °F 59% 30.13 in 10.0 mi WSW 8.1 mph - N/A   Unknown
1:15 PM 62.6 °F 48.2 °F 59% 30.13 in 10.0 mi SW 8.1 mph - N/A   Unknown
1:35 PM 62.6 °F 48.2 °F 59% 30.13 in 10.0 mi West 4.6 mph - N/A   Unknown
1:55 PM 62.6 °F 48.2 °F 59% 30.12 in 10.0 mi West 6.9 mph - N/A Rain Light Rain
2:15 PM 59.0 °F 53.6 °F 82% 30.12 in 8.0 mi WNW 5.8 mph - N/A Rain Light Rain
2:35 PM 59.0 °F 53.6 °F 82% 30.11 in 10.0 mi WNW 4.6 mph - N/A Rain Light Rain
2:55 PM 57.2 °F 53.6 °F 88% 30.11 in 9.0 mi West 4.6 mph - N/A Rain Light Rain
3:15 PM 57.2 °F 53.6 °F 88% 30.11 in 8.0 mi WNW 5.8 mph - N/A Rain Light Rain
3:35 PM 55.4 °F 55.4 °F 100% 30.11 in 3.0 mi Calm Calm - 0.03 in Rain Rain
3:55 PM 55.4 °F 55.4 °F 100% 30.12 in 5.0 mi West 4.6 mph - 0.06 in Rain Light Rain
4:15 PM 55.4 °F 55.4 °F 100% 30.11 in 5.0 mi WNW 3.5 mph - 0.03 in Rain Light Rain
4:35 PM 53.6 °F 53.6 °F 100% 30.12 in 3.0 mi WNW 5.8 mph - 0.06 in Rain Light Rain
4:55 PM 53.6 °F 53.6 °F 100% 30.13 in 2.0 mi WNW 4.6 mph - 0.11 in Rain Rain
5:15 PM 53.6 °F 53.6 °F 100% 30.13 in 3.0 mi West 4.6 mph - 0.03 in Rain Light Rain
5:35 PM 53.6 °F 53.6 °F 100% 30.13 in 3.0 mi West 6.9 mph - 0.06 in Rain Light Rain
5:55 PM 53.6 °F 53.6 °F 100% 30.09 in 10.0 mi South 5.8 mph - 0.06 in Rain Light Rain
6:15 PM 53.6 °F 53.6 °F 100% 30.08 in 10.0 mi SSW 3.5 mph - N/A   Unknown
6:35 PM 53.6 °F 53.6 °F 100% 30.09 in 10.0 mi West 4.6 mph - N/A   Unknown
6:55 PM 53.6 °F 53.6 °F 100% 30.08 in 10.0 mi West 3.5 mph - N/A Rain Light Rain
7:15 PM 53.6 °F 53.6 °F 100% 30.09 in 9.0 mi WSW 5.8 mph - 0.01 in Rain Light Rain
7:35 PM 53.6 °F 53.6 °F 100% 30.09 in 10.0 mi WSW 3.5 mph - 0.01 in   Unknown
7:55 PM 51.8 °F 51.8 °F 100% 30.09 in 10.0 mi WSW 3.5 mph - 0.01 in   Unknown
8:15 PM 51.8 °F 51.8 °F 100% 30.09 in 10.0 mi West 3.5 mph - N/A   Unknown
8:35 PM 51.8 °F 51.8 °F 100% 30.10 in 10.0 mi WNW 5.8 mph - N/A   Unknown
8:55 PM 51.8 °F 51.8 °F 100% 30.10 in 9.0 mi West 5.8 mph - N/A Rain Light Rain
9:15 PM 51.8 °F 51.8 °F 100% 30.11 in 10.0 mi WSW 6.9 mph - N/A   Unknown
9:35 PM 50.0 °F 50.0 °F 100% 30.12 in 10.0 mi WSW 5.8 mph - N/A   Unknown
9:55 PM 50.0 °F 50.0 °F 100% 30.12 in 10.0 mi SW 5.8 mph - N/A   Unknown
10:15 PM 50.0 °F 50.0 °F 100% 30.12 in 10.0 mi WSW 4.6 mph - N/A   Unknown
10:35 PM 50.0 °F 50.0 °F 100% 30.13 in 10.0 mi WSW 4.6 mph - N/A   Unknown
10:55 PM 50.0 °F 50.0 °F 100% 30.13 in 10.0 mi SW 9.2 mph - N/A   Unknown
11:15 PM 50.0 °F 50.0 °F 100% 30.13 in 10.0 mi SW 6.9 mph - N/A   Unknown
11:35 PM 48.2 °F 48.2 °F 100% 30.13 in 10.0 mi SW 6.9 mph - N/A   Unknown
11:55 PM 48.2 °F 48.2 °F 100% 30.15 in 10.0 mi WSW 4.6 mph - N/A   Unknown